Nampa, ID

4:54 PM MST on December 17, 2017 (GMT -0700)
Nampa

Weather History for KMAN - February, 2014

Change the Weather History Date:

Tuesday, February 25, 2014

  Actual Average (KBOI) Record (KBOI)
Temperature  
Mean Temperature 45 °F -  
Max Temperature 57 °F 49 °F 70 °F (1986)
Min Temperature 33 °F 30 °F 10 °F (1890)
Degree Days  
Heating Degree Days 20    
Moisture  
Dew Point 41 °F    
Average Humidity 83    
Maximum Humidity 100    
Minimum Humidity 51    
Precipitation  
Precipitation 0.00 in - - ()
Sea Level Pressure  
Sea Level Pressure 30.03 in    
Wind  
Wind Speed 3 mph (WNW)    
Max Wind Speed 13 mph    
Max Gust Speed 17 mph    
Visibility 10 miles    
Events      
Averages and records for this station are not official NWS values.
T = Trace of Precipitation, MM = Missing Value Source: NWS Daily Summary

Daily Weather History Graph

Daily Weather History Graph

Search for Another Location

Airport or City:

Trip Planner

Search our weather history database for the weather conditions in past years. The results will help you decide how hot, cold, wet, or windy it might be!

Date:

Astronomy

Feb. 25, 2014 Rise Set
Actual Time 7:28 AM MST 6:29 PM MST
Civil Twilight 7:00 AM MST 6:58 PM MST
Nautical Twilight 6:26 AM MST 7:32 PM MST
Astronomical Twilight 5:53 AM MST 8:05 PM MST
Moon 4:33 AM MST (2/25) 2:35 PM MST (2/25)
Length of Visible Light 11h 58m
Length of Day
11h 00m
Waning Crescent, 17% of the Moon is Illuminated
Feb 25
Waning Crescent
Mar 1
New
Mar 8
First Quarter
Mar 16
Full
Mar 23
Last Quarter

Hourly Weather History & Observations

Time (MST) Temp. Windchill Dew Point Humidity Pressure Visibility Wind Dir Wind Speed Gust Speed Precip Events Conditions
12:15 AM 46.4 °F - 42.8 °F 87% 30.02 in 10.0 mi Calm Calm - N/A   Overcast
12:35 AM 44.6 °F - 44.6 °F 100% 30.02 in 10.0 mi Calm Calm - N/A   Overcast
12:55 AM 44.6 °F - 42.8 °F 93% 30.02 in 10.0 mi Calm Calm - N/A   Overcast
1:15 AM 44.6 °F - 42.8 °F 93% 30.02 in 10.0 mi Calm Calm - N/A   Scattered Clouds
1:35 AM 42.8 °F - 42.8 °F 100% 30.02 in 10.0 mi Calm Calm - N/A   Clear
1:55 AM 41.0 °F - 41.0 °F 100% 30.03 in 10.0 mi Calm Calm - N/A   Clear
2:15 AM 41.0 °F - 41.0 °F 100% 30.03 in 10.0 mi Calm Calm - N/A   Clear
2:35 AM 39.2 °F - 39.2 °F 100% 30.03 in 10.0 mi Calm Calm - N/A   Clear
2:55 AM 41.0 °F - 41.0 °F 100% 30.03 in 10.0 mi Calm Calm - N/A   Clear
3:15 AM 39.2 °F - 39.2 °F 100% 30.03 in 10.0 mi Calm Calm - N/A   Scattered Clouds
3:35 AM 39.2 °F - 39.2 °F 100% 30.02 in 10.0 mi Calm Calm - N/A   Scattered Clouds
3:55 AM 37.4 °F - 37.4 °F 100% 30.02 in 10.0 mi Calm Calm - N/A   Partly Cloudy
4:15 AM 37.4 °F 34.9 °F 37.4 °F 100% 30.02 in 10.0 mi SE 3.5 mph - N/A   Clear
4:35 AM 37.4 °F - 37.4 °F 100% 30.02 in 10.0 mi Calm Calm - N/A   Clear
4:55 AM 37.4 °F - 37.4 °F 100% 30.02 in 10.0 mi Calm Calm - N/A   Mostly Cloudy
5:15 AM 37.4 °F - 37.4 °F 100% 30.03 in 10.0 mi Calm Calm - N/A   Overcast
5:35 AM 37.4 °F - 37.4 °F 100% 30.03 in 10.0 mi Calm Calm - N/A   Overcast
5:55 AM 35.6 °F - 35.6 °F 100% 30.03 in 10.0 mi Calm Calm - N/A   Overcast
6:15 AM 33.8 °F - 33.8 °F 100% 30.03 in 10.0 mi Calm Calm - N/A   Scattered Clouds
6:35 AM 35.6 °F - 35.6 °F 100% 30.04 in 10.0 mi Calm Calm - N/A   Clear
6:55 AM 35.6 °F - 35.6 °F 100% 30.04 in 10.0 mi Calm Calm - N/A   Partly Cloudy
7:15 AM 35.6 °F - 35.6 °F 100% 30.05 in 10.0 mi Calm Calm - N/A   Partly Cloudy
7:35 AM 33.8 °F - 33.8 °F 100% 30.05 in 10.0 mi Calm Calm - N/A   Mostly Cloudy
7:55 AM 35.6 °F - 35.6 °F 100% 30.06 in 10.0 mi Calm Calm - N/A   Overcast
8:15 AM 35.6 °F - 35.6 °F 100% 30.06 in 9.0 mi Calm Calm - N/A   Overcast
8:35 AM 37.4 °F - 37.4 °F 100% 30.07 in 10.0 mi Calm Calm - N/A   Mostly Cloudy
8:55 AM 37.4 °F - 37.4 °F 100% 30.07 in 10.0 mi Calm Calm - N/A   Scattered Clouds
9:15 AM 39.2 °F - 39.2 °F 100% 30.08 in 10.0 mi Calm Calm - N/A   Partly Cloudy
9:35 AM 41.0 °F - 41.0 °F 100% 30.09 in 10.0 mi Calm Calm - N/A   Scattered Clouds
9:55 AM 44.6 °F 40.7 °F 44.6 °F 100% 30.09 in 10.0 mi WNW 6.9 mph - N/A   Partly Cloudy
10:15 AM 46.4 °F 42.9 °F 44.6 °F 93% 30.09 in 10.0 mi WNW 6.9 mph - N/A   Clear
10:35 AM 48.2 °F - 42.8 °F 82% 30.10 in 10.0 mi NW 10.4 mph - N/A   Partly Cloudy
10:55 AM 48.2 °F - 44.6 °F 87% 30.10 in 10.0 mi NNW 10.4 mph - N/A   Clear
11:15 AM 50.0 °F - 44.6 °F 82% 30.09 in 10.0 mi NW 8.1 mph - N/A   Clear
11:35 AM 51.8 °F - 44.6 °F 76% 30.09 in 10.0 mi WNW 8.1 mph - N/A   Clear
11:55 AM 53.6 °F - 44.6 °F 72% 30.08 in 10.0 mi WNW 9.2 mph - N/A   Clear
12:15 PM 53.6 °F - 44.6 °F 72% 30.08 in 10.0 mi NW 9.2 mph - N/A   Clear
12:35 PM 53.6 °F - 46.4 °F 77% 30.07 in 10.0 mi WNW 9.2 mph - N/A   Clear
12:55 PM 55.4 °F - 44.6 °F 67% 30.06 in 10.0 mi NW 10.4 mph - N/A   Clear
1:15 PM 55.4 °F - 44.6 °F 67% 30.05 in 10.0 mi WNW 12.7 mph - N/A   Clear
1:35 PM 55.4 °F - 44.6 °F 67% 30.05 in 10.0 mi NW 9.2 mph - N/A   Clear
1:55 PM 55.4 °F - 44.6 °F 67% 30.04 in 10.0 mi WNW 10.4 mph - N/A   Clear
2:15 PM 57.2 °F - 44.6 °F 63% 30.03 in 10.0 mi NW 10.4 mph - N/A   Clear
2:35 PM 57.2 °F - 42.8 °F 59% 30.02 in 10.0 mi West 9.2 mph - N/A   Clear
2:55 PM 57.2 °F - 41.0 °F 55% 30.01 in 10.0 mi WNW 10.4 mph - N/A   Clear
3:15 PM 57.2 °F - 41.0 °F 55% 30.01 in 10.0 mi WNW 10.4 mph - N/A   Clear
3:35 PM 57.2 °F - 41.0 °F 55% 30.01 in 10.0 mi NW 9.2 mph 17.3 mph N/A   Clear
3:55 PM 57.2 °F - 41.0 °F 55% 30.00 in 10.0 mi NNW 8.1 mph - N/A   Clear
4:15 PM 57.2 °F - 41.0 °F 55% 30.00 in 10.0 mi WNW 10.4 mph - N/A   Clear
4:35 PM 57.2 °F - 41.0 °F 55% 30.00 in 10.0 mi NW 9.2 mph - N/A   Clear
4:55 PM 57.2 °F - 41.0 °F 55% 30.00 in 10.0 mi WNW 8.1 mph - N/A   Clear
5:15 PM 57.2 °F - 41.0 °F 55% 30.00 in 10.0 mi NW 6.9 mph - N/A   Clear
5:35 PM 57.2 °F - 39.2 °F 51% 30.00 in 10.0 mi NW 8.1 mph - N/A   Clear
5:55 PM 57.2 °F - 39.2 °F 51% 30.00 in 10.0 mi NW 9.2 mph - N/A   Clear
6:15 PM 55.4 °F - 39.2 °F 54% 30.00 in 10.0 mi NW 6.9 mph - N/A   Clear
6:35 PM 55.4 °F - 41.0 °F 58% 30.00 in 10.0 mi NW 4.6 mph - N/A   Clear
6:55 PM 53.6 °F - 41.0 °F 62% 30.00 in 10.0 mi NNW 3.5 mph - N/A   Clear
7:15 PM 53.6 °F - 41.0 °F 62% 30.01 in 10.0 mi NW 4.6 mph - N/A   Clear
7:35 PM 51.8 °F - 41.0 °F 67% 30.01 in 10.0 mi NNW 6.9 mph - N/A   Clear
7:55 PM 50.0 °F - 41.0 °F 71% 30.01 in 10.0 mi NNW 5.8 mph - N/A   Clear
8:15 PM 50.0 °F - 41.0 °F 71% 30.01 in 10.0 mi NW 5.8 mph - N/A   Clear
8:35 PM 48.2 °F - 41.0 °F 76% 30.01 in 10.0 mi WNW 3.5 mph - N/A   Clear
8:55 PM 48.2 °F - 41.0 °F 76% 30.01 in 10.0 mi Calm Calm - N/A   Clear
9:15 PM 48.2 °F - 41.0 °F 76% 30.01 in 10.0 mi NW 4.6 mph - N/A   Clear
9:35 PM 44.6 °F 41.4 °F 41.0 °F 87% 30.02 in 10.0 mi SSW 5.8 mph - N/A   Clear
9:55 PM 42.8 °F 40.1 °F 41.0 °F 93% 30.02 in 10.0 mi West 4.6 mph - N/A   Clear
10:15 PM 44.6 °F 42.2 °F 42.8 °F 93% 30.03 in 10.0 mi West 4.6 mph - N/A   Clear
10:35 PM 42.8 °F 39.3 °F 42.8 °F 100% 30.03 in 10.0 mi West 5.8 mph - N/A   Clear
10:55 PM 42.8 °F 38.0 °F 41.0 °F 93% 30.03 in 10.0 mi WNW 8.1 mph - N/A   Clear
11:15 PM 41.0 °F 38.0 °F 41.0 °F 100% 30.03 in 10.0 mi West 4.6 mph - N/A   Clear
11:35 PM 41.0 °F - 41.0 °F 100% 30.04 in 10.0 mi Calm Calm - N/A   Clear
11:55 PM 39.2 °F 35.9 °F 39.2 °F 100% 30.05 in 10.0 mi SE 4.6 mph - N/A   Partly Cloudy